QPF
0.01 0.02 0.02 0.01 0.00 0.00 0.03 0.04 0.03 0.02 0.00 0.02 0.02 0.01 0.01 0.01 0.00 0.00 0.00 0.00 0.00 0.00
0.00 0.01 0.00 0.00 0.00 0.00 0.07 0.10 0.14 0.04 0.00 0.01 0.01 0.02 0.03 0.01 0.01 0.01 0.00 0.00 0.00 0.00
0.00 0.00 0.00 0.00 0.00 0.00 0.02 0.09 0.16 0.05 0.01 0.00 0.01 0.01 0.02 0.01 0.02 0.01 0.01 0.00 0.01 0.00
0.00 0.00 0.00 0.00 0.00 0.00 0.00 0.04 0.06 0.10 0.02 0.00 0.00 0.01 0.03 0.05 0.06 0.04 0.02 0.01 0.01 0.00
0.02 0.02 0.01 0.00 0.00 0.00 0.00 0.00 0.01 0.03 0.03 0.03 0.03 0.02 0.00 0.01 0.02 0.04 0.01 0.00 0.00 0.00
0.04 0.02 0.02 0.02 0.00 0.00 0.00 0.00 0.00 0.00 0.03 0.03 0.04 0.07 0.02 0.01 0.00 0.01 0.02 0.00 0.02 0.00
0.15 0.11 0.05 0.03 0.03 0.02 0.01 0.00 0.00 0.00 0.00 0.00 0.01 0.04 0.03 0.03 0.02 0.01 0.00 0.01 0.00 0.00
0.12 0.11 0.13 0.08 0.05 0.03 0.01 0.00 0.00 0.00 0.00 0.00 0.00 0.01 0.00 0.01 0.05 0.04 0.01 0.00 0.00 0.00
0.23 0.15 0.16 0.15 0.09 0.07 0.04 0.02 0.02 0.00 0.00 0.00 0.00 0.00 0.00 0.00 0.00 0.02 0.04 0.03 0.02 0.01
0.22 0.33 0.30 0.18 0.18 0.16 0.14 0.12 0.07 0.06 0.04 0.01 0.00 0.00 0.00 0.00 0.00 0.00 0.04 0.05 0.04 0.01
0.03 0.10 0.20 0.20 0.11 0.12 0.12 0.13 0.10 0.09 0.06 0.06 0.02 0.00 0.00 0.00 0.00 0.00 0.00 0.00 0.02 0.01
0.00 0.03 0.05 0.11 0.14 0.08 0.13 0.16 0.12 0.12 0.09 0.06 0.04 0.03 0.01 0.01 0.00 0.00 0.00 0.00 0.00 0.00
0.00 0.00 0.00 0.01 0.02 0.04 0.05 0.05 0.04 0.03 0.03 0.03 0.02 0.06 0.03 0.02 0.01 0.00 0.00 0.00 0.00 0.00
0.00 0.00 0.00 0.00 0.00 0.00 0.00 0.00 0.00 0.00 0.00 0.00 0.01 0.07 0.08 0.02 0.01 0.02 0.02 0.01 0.00 0.00
MSLP
1016.55 1017.85 1018.42 1018.31 1017.54 1016.87 1017.59 1018.74 1018.93 1018.50 1018.16 1018.87 1019.50 1019.59 1019.63 1019.97 1019.93 1020.00 1020.19 1020.39 1020.39 1020.30
1015.69 1016.25 1016.68 1016.73 1016.31 1016.82 1018.47 1019.08 1018.80 1019.40 1018.66 1018.22 1019.03 1019.41 1019.64 1020.00 1020.02 1020.13 1020.37 1020.41 1020.45 1020.42
1015.49 1015.72 1015.93 1016.16 1015.98 1016.88 1018.91 1019.64 1019.43 1020.27 1018.98 1018.10 1018.61 1019.19 1019.67 1019.85 1019.94 1020.14 1020.35 1020.39 1020.44 1020.41
1015.37 1015.64 1016.01 1016.21 1015.92 1016.32 1017.81 1019.67 1018.89 1019.37 1018.91 1018.14 1018.81 1019.23 1019.71 1020.00 1020.12 1020.18 1020.18 1020.29 1020.39 1020.32
1015.31 1015.63 1015.86 1016.29 1016.31 1016.34 1016.25 1016.93 1017.97 1017.88 1018.07 1018.36 1018.98 1019.25 1019.57 1019.90 1019.81 1020.05 1020.08 1020.11 1020.16 1020.17
1014.66 1015.37 1015.63 1016.02 1016.38 1016.47 1016.74 1016.77 1017.09 1017.40 1017.98 1018.54 1019.04 1019.34 1019.60 1019.56 1019.55 1019.73 1019.70 1019.74 1019.91 1020.09
1014.97 1015.19 1015.59 1016.06 1016.43 1016.61 1016.73 1017.13 1017.46 1017.78 1018.05 1018.29 1018.67 1018.93 1019.12 1019.30 1019.27 1019.24 1019.36 1019.49 1019.52 1019.59
1016.46 1016.36 1016.04 1016.29 1016.65 1016.71 1016.70 1016.88 1017.29 1017.59 1017.81 1018.01 1018.26 1018.41 1018.67 1018.65 1018.82 1019.17 1019.19 1019.14 1019.13 1019.13
1017.79 1017.56 1017.50 1017.09 1016.71 1016.86 1016.84 1016.82 1016.95 1017.22 1017.45 1017.62 1017.70 1017.73 1017.86 1018.04 1018.24 1018.42 1018.67 1018.81 1018.82 1018.81
1018.75 1018.43 1018.14 1017.72 1017.61 1017.23 1017.04 1016.99 1017.02 1017.15 1017.20 1017.16 1017.29 1017.31 1017.39 1017.64 1017.89 1017.91 1018.04 1018.20 1018.36 1018.51
1018.74 1018.85 1018.73 1018.47 1018.37 1018.27 1018.05 1017.51 1017.14 1016.97 1016.95 1017.04 1017.11 1017.23 1017.31 1017.41 1017.61 1017.63 1017.54 1017.59 1017.74 1017.90
1018.88 1018.92 1018.58 1019.07 1018.87 1018.87 1018.58 1018.19 1017.68 1017.24 1017.07 1016.94 1017.01 1016.98 1017.09 1017.23 1017.23 1017.19 1017.17 1017.18 1017.23 1017.33
1019.02 1018.60 1018.70 1019.11 1019.24 1019.06 1018.85 1018.50 1018.24 1017.93 1017.29 1017.00 1016.89 1016.89 1016.97 1016.97 1017.12 1016.75 1016.59 1016.66 1016.60 1016.70
1019.74 1019.51 1019.00 1018.73 1018.73 1018.93 1018.85 1018.54 1018.26 1018.06 1017.51 1017.31 1016.93 1016.66 1016.61 1016.70 1016.84 1016.53 1016.36 1016.30 1016.01 1015.91
Thickness
5797 5783 5783 5782 5796 5805 5799 5788 5787 5794 5795 5791 5787 5789 5791 5791 5793 5795 5795 5793 5795 5797
5806 5803 5800 5802 5808 5805 5787 5787 5787 5782 5795 5797 5791 5790 5792 5792 5793 5794 5794 5795 5796 5797
5804 5807 5809 5808 5810 5805 5783 5778 5776 5783 5793 5803 5795 5791 5792 5794 5796 5795 5795 5796 5796 5798
5801 5803 5804 5805 5810 5808 5797 5779 5788 5785 5797 5804 5795 5792 5792 5793 5795 5795 5796 5797 5797 5798
5798 5800 5800 5799 5804 5805 5812 5810 5803 5804 5806 5801 5795 5794 5793 5792 5796 5794 5795 5798 5799 5800
5801 5796 5798 5798 5800 5803 5801 5807 5808 5806 5800 5796 5793 5793 5793 5795 5795 5796 5798 5799 5798 5798
5791 5792 5793 5794 5794 5796 5799 5796 5797 5797 5797 5796 5795 5795 5796 5795 5797 5797 5798 5799 5800 5801
5772 5777 5785 5787 5787 5790 5793 5795 5795 5795 5795 5796 5797 5798 5797 5799 5797 5795 5796 5799 5801 5803
5755 5761 5764 5773 5781 5783 5785 5789 5791 5792 5793 5794 5798 5800 5800 5800 5798 5799 5797 5796 5799 5801
5740 5746 5753 5761 5764 5771 5776 5780 5784 5787 5789 5792 5795 5797 5798 5798 5798 5799 5798 5798 5798 5798
5734 5736 5740 5745 5748 5753 5760 5768 5775 5780 5784 5787 5791 5792 5793 5793 5794 5797 5799 5800 5800 5799
5724 5726 5734 5733 5737 5739 5745 5753 5761 5769 5774 5778 5783 5787 5787 5786 5791 5793 5796 5798 5800 5801
5714 5721 5723 5722 5725 5731 5735 5741 5748 5752 5763 5771 5775 5779 5781 5781 5782 5787 5792 5795 5797 5797
5697 5702 5711 5718 5722 5722 5726 5732 5737 5743 5753 5758 5766 5771 5773 5773 5774 5779 5783 5787 5793 5799